LEMUR-2-WINGO

Last updated on Wed Feb 14 2018 16:20:13 GMT+0000 (Greenwich Mean Time)

1 41874U 16062F 18044.97410984 .00001289 00000-0 67330-4 0 9991 2 41874 51.6767 17.9897 0005151 12.6952 347.4132 15.23415987 67772
UTC large
Height (km)
Speed (km/s)
/
Latitude / Longitude
Inclination (degrees)
Orbital Period (minutes)
Azimuth
Elevation
Range (km)
Doppler Factor

Next 0 passes for location: London (51.5072 / 0.1276)

Sorry there are no passes over London.